Regional Weather Roundup
Issued by NWS Green Bay, WI

Home | Current Version | Previous Version | Text Only | Print | Product List | Glossary On
Versions: 1 2 3 4 5 6 7 8 9 10 11 12 13 14 15 16 17 18 19 20 21 22 23 24 25 26 27 28 29 30 31 32 33 34 35 36 37 38 39 40 41 42 43 44 45 46 47 48 49 50
000
ASUS43 KGRB 281759
RWRGRB

NORTH-CENTRAL AND NORTHEAST WISCONSIN REGIONAL WEATHER ROUNDUP
NATIONAL WEATHER SERVICE GREEN BAY WI
100 PM CDT MON JUL 28 2014

WIZ005-009-010>012-018-019-281900-
NORTH CENTRAL WISCONSIN

CITY           SKY/WX    TMP DP  RH WIND       PRES   REMARKS
IRONWOOD       NOT AVBL
MANITOWISH WTR NOT AVBL
ARBOR VITAE    NOT AVBL
EAGLE RIVER    NOT AVBL
LAND O LAKES   NOT AVBL
RHINELANDER    PTSUNNY   68  49  50 VRB7      30.13S
PHILLIPS       NOT AVBL
ANTIGO         NOT AVBL
TOMAHAWK       NOT AVBL
MERRILL        NOT AVBL
$$

WIZ013-073-281900-
NORTHEAST WISCONSIN

CITY           SKY/WX    TMP DP  RH WIND       PRES   REMARKS
IRON MOUNTAIN  MOSUNNY   72  46  39 NW21      30.05F
MARINETTE      MOSUNNY   66  48  52 SE9       30.05F
$$

WIZ017-030-035>037-045-281900-
CENTRAL WISCONSIN

CITY           SKY/WX    TMP DP  RH WIND       PRES   REMARKS
MEDFORD        NOT AVBL
WAUSAU         PTSUNNY   71  50  47 NW12G20   30.09F
MOSINEE        PTSUNNY   68  50  52 N17       30.13F
MARSHFIELD     CLOUDY    71  50  47 N14G21    30.13F
WISC RAPIDS    MOSUNNY   72  50  45 NW16      30.13F
STEVENS POINT  NOT AVBL
WAUPACA        NOT AVBL
SHAWANO        NOT AVBL
CLINTONVILLE   NOT AVBL
$$

WIZ038-039-048-051-281900-
FOX VALLEY

CITY           SKY/WX    TMP DP  RH WIND       PRES   REMARKS
NWS GREEN BAY  SUNNY     69  52  54 N9G17     30.09F
APPLETON       PTSUNNY   66  50  55 NW9       30.11F
OSHKOSH        SUNNY     69  52  54 N7        30.09F
FOND DU LAC    MOSUNNY   68  50  52 N15       30.10F
$$

WIZ022-050-052-281900-
EAST CENTRAL WISCONSIN

CITY           SKY/WX    TMP DP  RH WIND       PRES   REMARKS
STURGEON BAY   SUNNY     63  43  48 N9        30.08F
MANITOWOC      NOT AVBL
SHEBOYGAN      MOSUNNY   64  50  60 E12       30.09S
$$

LMZ563-521-522-541>543-281900-
LAKESHORE

STATION/POSITION TIME  TEMP    WIND        PRES    VSBY  WAVE
                       AIR SEA DIR/SP/G                  HT/PER
                 (UTC) (F)     (DEG/KT/KT) (MB)    (MI)  (FT/S)
SHEBOYGAN LKSHOR 1700   56      10/  6/  7 1019.6R
KEWAUNEE LKSHORE 1700   56      30/  5/  6 1019.7F
NORTHPORT PIER   1700   59     330/  4/  7 1018.3F
N MID LAKE BUOY  1700   54 52  310/  6/  6 1017.8F         2/ 4
S GREEN BAY BUOY 1700   59 67  120/  6     1019.9F
SISTER BAY LKSHO 1700   63     350/  9/ 10   N/A
CHAMBERS ISLAND  1700   63      10/  2/  3 1018.6F
MENOMINEE LKSHOR 1700   59     130/  6/  7 1019.1F
$$


USA.gov is the U.S. government's official web portal to all federal, state and local government web resources and services.